Wind_Speed
5 2 1 4 6 7 7 6 8 7 5 5 3 1 3 4 6 5 6 9 4 6 7 9 10 7 8 11 7 2 9 13 11 11 15 19 24 26 26 26 25 24 22 22 21 20 19 18 16 16 16 16 14 13 13 13 14 16 18 19 17 18 18 16 18 19 17 18 19 19 20 19 18 19 20 20 21 21 20 19 18 18 19 18 16 15
5 4 6 9 9 9 8 7 7 6 6 7 4 3 4 4 7 6 6 10 4 6 5 6 8 7 10 9 6 3 7 10 15 15 14 19 22 24 26 26 26 24 23 23 22 22 21 19 19 19 19 17 15 15 15 13 14 16 17 17 16 18 18 18 20 20 20 19 16 17 19 20 21 22 22 21 22 21 20 19 18 18 18 18 17 16
3 4 9 11 9 7 7 6 6 6 6 6 3 2 3 4 7 7 4 7 5 1 2 3 7 7 9 7 6 3 2 9 20 23 25 27 24 25 28 28 27 25 24 25 24 24 23 21 21 21 21 18 15 14 14 15 17 18 19 16 12 17 19 21 24 24 23 23 20 20 19 20 23 24 22 22 21 19 18 18 18 18 18 18 18 18
3 7 12 12 7 6 7 6 5 4 4 5 3 3 3 5 4 5 4 6 6 3 1 3 5 4 5 4 5 6 5 4 14 23 30 32 30 30 31 31 30 29 29 29 28 27 25 24 23 23 23 20 18 16 15 19 20 20 22 16 9 15 21 23 27 25 22 21 22 23 21 21 22 22 22 21 19 18 17 17 17 18 18 17 18 18
6 10 11 8 6 8 7 7 5 3 4 5 5 5 4 6 6 5 4 4 6 6 2 5 3 5 4 2 4 7 7 5 5 16 23 28 33 32 29 31 32 33 34 33 32 31 29 27 26 25 24 22 21 19 16 19 21 19 23 21 13 15 22 25 27 26 23 22 23 25 25 25 24 23 23 22 20 19 18 17 17 17 17 17 17 16
9 13 9 6 6 8 7 7 6 6 4 5 5 8 9 9 8 6 5 4 5 6 3 5 5 5 5 3 6 6 6 7 1 8 14 21 25 22 24 33 31 29 33 34 33 33 31 30 27 26 25 23 21 19 16 17 21 21 24 26 22 19 22 24 25 26 24 24 25 27 29 30 28 26 25 23 21 20 19 17 16 17 17 17 16 14
7 10 8 7 8 9 8 8 7 8 5 4 6 8 10 8 5 4 5 3 3 2 4 3 5 3 6 5 7 5 5 9 5 2 8 18 19 16 22 28 21 21 28 31 31 32 32 31 29 27 26 23 20 18 17 17 21 24 25 24 24 22 22 24 24 24 24 25 26 28 29 29 27 26 25 22 20 20 18 16 16 17 18 18 17 15
7 9 7 7 8 8 6 7 8 8 6 4 7 7 6 3 6 4 2 1 2 2 5 4 4 3 3 5 6 4 5 8 9 7 4 8 15 21 22 17 11 14 21 25 28 30 30 30 28 26 24 22 19 17 18 21 24 24 23 23 23 23 23 24 24 23 24 25 27 28 29 29 27 26 25 20 19 19 17 18 18 17 18 19 18 17
6 9 9 8 8 5 6 10 10 9 6 7 8 7 5 4 6 3 2 3 1 2 5 6 1 2 3 5 6 5 6 7 8 9 9 10 5 5 11 12 12 12 13 17 24 26 26 26 24 23 23 21 20 19 18 22 26 24 22 23 25 25 25 25 24 24 24 25 27 27 28 27 25 25 24 19 17 18 18 19 19 18 18 20 19 18
6 9 11 9 7 5 9 12 11 9 6 8 6 6 4 2 1 1 2 3 2 3 4 6 1 1 3 5 7 5 5 4 6 6 8 12 19 19 17 17 15 13 12 13 17 20 23 24 23 24 24 21 20 21 17 17 20 21 21 23 24 25 27 26 25 24 24 24 26 26 24 21 20 22 21 18 18 19 19 20 19 18 18 19 20 20
8 11 8 6 7 9 11 10 11 14 10 5 5 4 1 2 3 3 2 2 3 3 6 7 1 4 0 5 5 4 3 4 3 4 7 12 21 24 24 23 19 17 16 15 16 17 19 20 22 23 24 22 21 21 18 15 18 21 22 23 24 26 27 27 25 24 22 22 23 23 21 17 17 19 19 19 20 20 20 21 20 19 19 19 19 18
6 8 4 4 8 9 8 6 9 13 10 6 4 4 1 4 4 4 5 3 1 3 6 7 1 7 2 4 4 4 5 5 4 5 6 10 17 22 23 22 19 16 13 12 12 13 14 16 20 22 22 21 20 19 20 18 20 24 24 24 27 27 27 27 25 22 21 20 19 19 19 18 18 19 19 20 22 22 21 22 21 19 19 20 19 17
5 5 4 4 10 9 7 4 3 3 4 5 4 5 3 2 1 2 3 0 2 4 6 6 2 4 1 4 2 5 6 8 9 10 11 12 16 20 21 20 17 14 13 11 10 9 10 13 17 19 19 19 17 16 18 19 22 25 22 20 25 27 26 26 23 21 21 19 16 15 17 18 18 18 19 20 22 22 22 22 22 21 20 21 20 18
4 7 5 2 6 7 7 5 3 2 3 5 5 6 5 2 1 1 3 0 1 4 6 4 2 1 2 1 2 5 7 11 15 16 17 17 17 19 20 19 17 13 13 11 9 7 6 8 12 14 14 18 18 14 14 16 23 28 21 14 17 21 21 21 21 21 20 18 16 16 17 18 17 17 18 19 20 21 21 21 21 21 19 20 19 18
3 6 4 3 3 5 6 5 7 5 4 4 5 6 5 4 4 3 3 2 2 3 5 3 1 2 3 1 1 5 10 16 19 19 21 20 18 19 19 18 16 13 11 8 5 3 2 4 7 9 10 15 17 12 13 17 23 28 25 18 18 19 17 14 17 19 18 17 16 17 18 19 18 17 18 18 18 19 20 20 20 19 17 17 17 17
4 6 7 7 6 5 5 5 6 6 2 3 3 6 3 5 5 3 3 5 4 1 3 1 1 1 3 2 3 8 12 15 17 18 20 19 16 18 18 16 15 13 11 10 7 4 1 3 4 7 9 12 13 11 13 17 21 24 25 24 22 18 14 12 15 16 15 15 15 16 19 21 21 19 19 19 18 20 20 19 19 18 16 16 16 17
4 6 7 4 5 6 8 7 6 6 3 1 2 3 4 5 7 4 2 1 4 2 3 1 2 1 2 2 4 8 8 9 11 14 15 14 14 15 14 13 13 11 10 8 6 5 3 0 2 6 9 10 11 11 10 13 18 20 20 20 20 15 10 10 14 14 13 15 16 17 20 22 22 21 21 21 21 21 20 19 19 17 17 17 17 18
4 4 6 2 3 9 12 10 5 7 9 4 1 5 3 2 4 3 2 2 3 2 4 1 4 3 3 1 1 5 7 6 7 8 10 12 13 13 12 12 13 14 13 11 8 8 7 4 2 4 6 9 11 11 9 8 11 14 15 14 14 13 9 9 12 12 12 14 16 18 20 21 21 21 22 21 22 22 21 20 20 19 19 19 19 19
4 2 7 4 4 7 6 6 1 2 4 4 4 4 3 3 1 1 2 2 2 2 3 1 2 2 3 2 0 3 5 6 7 7 9 10 11 12 12 13 15 16 17 16 13 12 12 11 10 8 6 4 6 8 9 9 7 8 10 10 8 8 9 10 10 12 13 14 16 18 20 20 20 21 22 22 23 23 22 22 22 21 20 20 21 21
3 2 5 5 4 2 1 2 2 3 2 2 2 1 2 3 3 2 3 4 4 3 3 1 2 0 2 2 3 5 5 7 8 8 9 10 13 14 14 15 17 18 19 19 16 15 15 16 14 11 9 6 5 4 5 8 8 7 6 7 7 8 11 14 13 15 18 17 16 18 20 20 20 21 22 22 23 23 22 23 23 23 22 22 22 22
2 1 3 6 5 1 1 1 6 6 3 2 2 1 1 2 2 2 2 2 4 4 4 3 1 2 3 1 4 6 4 6 9 9 9 12 16 18 17 18 19 20 21 21 19 16 16 16 15 13 12 10 6 4 3 5 7 7 7 9 11 12 15 17 16 17 19 19 19 20 21 21 21 23 23 22 22 23 23 24 25 25 25 24 23 23
1 1 3 3 4 1 1 2 3 5 5 4 3 1 1 3 4 3 2 2 2 3 4 5 3 3 3 0 3 4 3 5 9 12 11 14 18 17 17 18 19 20 22 22 20 18 16 16 16 14 13 12 9 5 2 4 5 6 10 13 15 15 15 15 15 17 18 20 21 22 22 23 23 24 24 23 23 24 25 26 26 25 23 23 24 24
2 3 3 1 4 4 2 8 12 12 11 8 4 1 1 2 4 4 4 3 1 3 2 4 3 3 2 2 3 3 4 7 13 14 14 16 17 16 16 18 20 21 22 22 21 19 17 17 16 15 13 13 11 11 7 1 1 2 7 11 14 14 13 12 13 14 15 19 21 21 23 24 24 25 25 24 25 25 26 27 26 23 21 20 22 22
2 3 2 2 4 3 1 7 11 10 9 6 4 3 3 1 2 4 5 3 3 3 2 4 2 2 1 2 4 6 9 12 14 15 16 17 16 16 17 18 20 22 22 23 23 22 19 17 16 16 15 14 13 11 11 8 5 3 2 5 9 11 11 11 11 12 15 17 18 20 24 24 24 26 26 25 25 25 27 27 25 23 21 19 20 20
1 1 2 2 2 4 3 2 5 7 6 5 3 5 3 2 1 2 1 3 3 2 3 5 2 2 2 4 6 8 11 12 13 16 18 18 16 16 17 18 20 22 22 22 23 23 22 20 18 16 15 14 12 9 8 8 8 5 1 2 4 6 8 10 11 13 15 16 17 19 23 23 23 25 26 25 24 26 28 27 24 23 22 20 21 20
2 1 3 4 3 2 2 2 1 1 3 3 2 6 6 5 5 3 2 4 1 1 2 4 3 2 5 8 9 8 10 11 13 16 18 18 17 16 17 18 19 20 21 22 23 22 22 21 17 14 13 12 10 9 8 8 9 7 4 3 3 4 6 9 12 14 15 15 17 18 20 20 22 24 24 24 25 26 26 23 22 22 22 22 22 20
3 2 2 5 5 5 5 4 3 2 4 3 2 6 6 6 5 4 4 2 3 2 4 2 5 9 8 9 9 8 8 9 10 12 14 15 16 16 17 17 17 18 19 21 21 19 19 19 15 11 10 10 9 9 9 9 9 8 6 3 4 6 9 11 11 13 14 16 17 18 19 20 21 22 23 25 25 25 22 20 21 22 23 24 23 20
4 3 2 5 4 3 5 4 4 5 5 4 3 5 7 6 5 6 4 1 3 5 3 0 7 11 8 7 9 7 7 8 9 11 12 12 13 15 17 18 17 18 19 19 18 16 16 16 13 11 10 8 8 7 7 8 9 9 8 5 5 7 9 10 11 13 14 15 17 18 20 22 21 22 24 26 25 22 20 20 21 22 24 25 22 20
5 1 1 4 4 3 5 8 10 10 7 6 5 4 6 6 6 5 3 0 3 5 5 6 9 8 5 7 8 7 8 9 10 12 12 12 13 15 17 19 19 19 19 18 18 16 15 13 11 10 9 7 6 6 6 8 9 10 10 8 6 7 8 8 11 14 13 13 15 18 22 23 22 23 25 27 26 24 23 22 21 22 25 24 20 19
4 0 2 3 6 5 5 6 9 11 8 6 7 5 5 5 5 5 2 2 5 7 9 13 13 9 5 6 7 8 10 12 14 15 14 12 12 14 18 20 20 20 19 19 17 15 13 11 10 9 7 6 6 5 6 8 10 12 12 10 8 7 8 8 9 12 14 15 16 18 21 22 23 25 27 28 26 25 24 23 20 22 26 23 20 20
3 1 3 3 6 3 4 6 8 9 10 9 8 8 7 6 5 5 3 4 7 8 10 14 13 7 4 6 8 9 11 14 15 15 14 12 11 15 20 20 20 20 19 18 16 13 11 10 8 8 7 8 9 8 9 10 11 11 11 11 10 7 6 8 7 9 13 15 17 19 20 20 22 25 27 26 24 24 24 22 20 22 24 22 20 20
3 1 1 4 5 2 2 6 7 9 11 10 8 8 8 6 4 4 3 2 3 6 11 11 8 4 4 7 9 10 12 15 15 14 13 12 14 18 19 18 18 19 18 17 15 12 10 9 9 9 10 10 11 10 10 10 10 11 11 11 11 8 5 5 5 7 10 11 14 19 21 20 21 23 24 23 23 24 23 21 21 22 22 22 22 22
3 3 1 2 4 3 4 6 6 5 6 5 4 5 6 4 3 4 4 4 3 4 7 6 5 5 7 9 10 10 11 13 13 14 13 12 14 16 17 17 18 18 17 16 15 13 11 11 10 10 11 12 11 11 11 11 10 10 10 9 8 8 4 3 5 7 9 9 12 18 20 19 19 21 21 21 23 24 23 21 23 23 23 23 24 23
3 4 2 2 3 3 3 2 2 3 2 2 1 3 4 4 6 7 6 7 7 7 7 6 8 8 7 8 10 10 10 13 15 16 14 12 13 14 15 16 17 17 17 16 15 14 13 12 11 11 11 13 14 14 13 13 12 11 10 7 6 5 4 5 7 8 10 10 12 16 17 16 17 19 20 21 23 25 24 22 23 25 25 24 23 24
4 4 1 2 3 3 1 3 3 1 3 3 2 3 3 3 7 10 9 9 9 10 12 12 10 9 10 13 17 17 17 20 22 20 17 15 14 13 15 16 16 16 16 15 15 15 13 12 12 11 11 13 14 14 14 14 13 12 11 10 8 8 8 7 7 8 10 11 13 15 16 16 17 19 21 22 23 26 26 25 25 26 25 24 22 22
5 3 1 2 3 2 1 2 2 2 1 2 3 4 4 2 4 6 8 8 8 6 10 13 11 11 14 17 20 22 23 25 27 23 20 18 17 16 17 16 16 16 15 15 15 14 13 12 12 12 11 13 14 14 14 15 15 14 13 11 11 10 10 9 7 7 8 10 13 14 16 18 19 20 24 25 24 25 27 27 27 25 24 24 23 21
5 4 2 2 2 3 2 2 2 1 1 1 2 3 3 2 2 1 3 5 5 4 7 12 12 13 16 18 21 23 23 23 21 17 15 16 17 19 18 17 16 16 15 14 14 14 13 12 12 12 11 12 14 15 15 15 16 15 13 10 11 12 11 10 10 8 6 8 11 11 14 18 20 21 23 23 23 24 26 26 26 24 23 23 23 22
5 4 4 3 2 2 3 2 2 1 2 1 2 3 6 4 2 1 0 3 4 4 8 11 12 14 17 19 20 17 13 14 10 7 8 11 15 18 19 18 18 17 15 14 13 13 13 12 11 12 10 11 14 15 14 14 14 13 11 10 12 14 12 12 13 10 7 7 8 8 10 14 18 20 22 23 23 24 25 25 25 24 22 22 23 23
7 5 4 4 2 2 4 3 2 2 1 0 1 5 9 8 4 2 1 2 2 3 11 13 13 16 18 17 16 9 4 6 3 2 5 9 10 14 16 17 19 19 17 16 14 13 14 13 12 11 10 11 13 14 13 12 12 12 13 13 15 17 17 17 18 15 10 7 7 8 9 11 13 14 17 22 26 26 24 23 20 19 18 18 20 22
6 4 3 4 2 2 2 3 2 1 1 1 2 7 11 10 4 1 2 1 2 3 13 17 15 16 15 12 10 4 3 6 7 6 9 11 10 12 14 15 18 19 19 18 16 15 14 13 12 12 12 13 14 13 12 12 12 14 16 17 17 19 21 21 20 19 17 12 9 8 8 8 8 9 10 14 20 23 22 19 18 18 16 14 15 16
4 3 2 3 3 2 2 3 2 1 1 1 5 10 11 6 1 2 2 2 3 7 14 18 16 13 11 13 14 10 10 14 17 15 15 15 14 15 15 15 17 18 18 19 18 16 15 14 14 15 16 16 14 12 10 9 12 15 16 16 18 19 20 19 17 18 20 18 16 14 11 9 9 9 9 9 12 17 18 16 17 19 19 19 18 18
2 2 2 2 1 2 3 3 1 1 1 4 7 7 5 1 2 1 3 6 10 13 16 17 16 15 15 20 24 22 21 23 23 21 19 18 18 18 17 17 18 18 18 18 19 18 16 16 16 17 17 17 16 14 12 10 12 15 16 17 19 18 15 15 15 16 18 19 19 19 18 15 13 12 11 10 11 14 16 16 16 16 17 19 19 18
0 0 2 2 0 1 3 2 2 3 1 8 7 3 2 1 3 8 11 13 15 19 21 20 19 21 25 28 28 27 25 23 22 21 20 19 19 18 18 18 18 18 18 18 18 18 17 16 17 17 17 17 17 16 14 13 14 16 17 19 20 17 13 13 13 14 17 19 19 19 19 18 16 14 13 12 13 14 15 16 17 18 18 19 19 19
1 1 2 1 1 1 2 2 2 1 3 8 5 3 4 6 11 16 18 16 16 20 24 24 23 24 29 30 28 26 25 23 21 20 18 17 17 16 17 17 17 17 18 18 18 18 18 18 17 17 17 17 17 17 16 15 15 16 18 19 18 16 14 13 12 12 15 17 19 19 18 18 18 17 16 14 14 15 15 14 15 17 19 19 19 20
2 3 5 3 2 3 4 3 2 3 5 8 11 12 12 13 15 17 20 20 18 20 25 28 27 26 29 30 29 27 26 25 24 22 21 20 19 19 19 18 17 16 16 16 16 16 17 18 18 17 17 17 16 16 16 15 14 15 16 17 15 14 14 13 13 14 15 16 16 17 16 16 16 17 17 16 15 14 14 13 15 16 17 17 17 17
2 5 7 5 4 6 9 8 6 7 12 15 16 16 17 17 18 20 24 24 22 23 27 30 29 28 28 29 29 27 25 24 24 23 22 22 21 21 21 20 19 18 17 16 15 14 14 14 15 15 16 16 15 14 14 14 13 14 14 14 13 12 12 11 12 14 15 15 15 15 14 14 14 14 15 15 15 15 14 14 15 17 18 17 17 16
2 5 6 3 3 4 5 5 5 8 13 17 19 19 20 21 22 24 26 27 26 28 29 29 28 28 27 28 27 26 23 22 22 21 19 19 19 18 17 17 17 18 18 17 16 15 14 13 13 13 14 14 13 12 11 11 12 13 13 12 11 10 8 6 7 9 10 11 11 11 11 12 12 12 13 13 13 14 14 14 14 15 16 15 15 16
3 7 6 4 3 4 5 7 11 15 16 18 20 22 23 24 25 26 28 29 29 29 28 28 27 27 27 27 26 25 24 22 20 18 16 15 16 16 16 15 14 15 16 15 14 15 15 14 13 13 13 13 11 10 9 10 10 11 11 11 11 10 7 5 5 6 7 8 8 8 9 9 9 10 10 11 10 10 11 12 11 12 14 14 13 13
6 6 4 5 6 7 8 11 14 15 15 17 20 22 24 26 28 27 26 26 25 25 25 25 25 24 24 24 23 23 23 20 18 17 15 14 15 16 16 16 14 13 13 12 12 14 15 12 11 11 13 13 11 9 8 9 9 10 11 12 12 10 9 8 7 7 6 6 7 7 8 8 8 8 7 8 8 8 8 8 8 9 11 13 13 12
9 6 4 6 6 5 5 7 9 8 9 13 19 21 22 25 27 26 24 23 23 22 23 23 22 21 20 21 21 21 19 17 16 17 16 16 16 16 16 15 15 14 12 11 12 15 13 10 9 11 13 14 13 10 8 7 7 8 10 12 12 11 11 11 10 10 9 9 8 9 9 8 8 8 7 5 5 5 4 4 4 4 5 8 10 10
6 5 5 4 5 6 10 13 14 14 14 16 21 23 24 25 26 25 24 24 22 22 22 23 22 20 18 19 19 19 17 15 15 16 18 18 16 14 13 12 12 13 12 12 13 14 11 9 9 10 11 13 13 9 7 7 8 8 9 9 9 10 11 12 12 12 12 11 11 11 11 11 10 10 9 7 6 5 3 0 1 0 2 3 4 4
Wind_Direction
159 157 200 203 220 224 223 194 201 225 222 250 280 268 291 296 285 276 272 282 250 180 200 196 190 196 230 252 287 3 127 132 136 150 164 173 175 177 177 173 168 169 175 175 177 184 185 185 183 174 174 176 177 180 182 189 196 197 197 197 192 190 199 202 191 187 194 208 215 214 216 220 221 219 215 218 220 216 214 215 212 209 208 206 202 198
143 181 229 221 217 215 222 207 201 234 248 259 276 287 304 299 283 279 278 295 269 186 222 190 168 197 223 255 284 186 135 141 156 160 174 182 182 181 179 176 170 165 170 173 176 179 180 180 176 174 176 182 187 182 180 186 183 177 180 186 188 191 197 196 190 187 183 188 201 206 210 216 218 218 218 220 219 214 212 214 212 209 208 207 205 201
151 215 237 226 218 210 230 226 198 220 241 253 252 257 292 270 280 290 292 321 335 171 267 185 175 220 237 264 283 246 152 158 172 178 182 186 187 183 183 180 169 163 168 175 179 179 179 180 177 178 182 190 195 182 174 175 168 162 164 171 190 201 199 190 189 192 187 187 198 206 211 213 216 219 220 221 219 213 212 214 213 213 214 212 207 202
190 232 234 225 209 197 236 247 212 226 253 249 218 191 258 254 263 287 303 351 353 337 322 164 185 265 285 281 291 290 288 193 183 194 192 189 191 190 189 186 176 171 173 177 179 179 181 183 182 184 187 190 189 178 170 169 165 163 168 171 183 203 205 196 193 199 203 204 208 212 215 216 217 220 220 218 216 215 215 216 215 217 219 213 204 197
221 238 229 216 206 201 226 249 219 210 256 257 225 197 229 257 239 242 277 345 348 338 35 94 55 318 318 307 277 282 290 300 201 200 199 192 195 197 191 189 186 180 181 182 179 180 184 186 187 188 191 191 185 180 179 173 166 168 181 188 185 193 202 202 202 207 209 210 214 215 213 214 215 215 214 211 209 212 215 214 212 211 210 203 196 192
236 242 221 201 216 209 216 245 218 185 223 268 241 207 210 238 241 244 297 10 31 346 326 80 60 303 313 330 275 290 322 313 238 182 205 202 201 200 191 193 190 181 185 185 180 182 185 185 187 188 192 192 187 189 191 181 174 177 192 201 201 198 197 200 206 208 206 207 215 219 215 213 214 212 211 207 206 210 210 206 202 200 198 194 192 192
238 235 206 192 210 214 216 241 227 177 181 254 241 204 197 222 249 266 306 15 85 269 283 80 112 243 314 320 265 282 325 308 333 81 217 215 212 206 198 199 187 173 186 186 180 184 186 186 188 191 194 195 195 197 197 193 188 190 198 203 207 204 199 201 205 205 205 207 215 220 219 219 219 218 214 208 205 208 206 195 191 191 189 187 191 195
232 228 216 198 199 211 215 237 231 173 157 236 228 185 170 232 273 275 308 301 194 238 326 360 116 155 284 278 270 306 7 339 344 359 308 237 224 214 204 199 175 172 188 186 184 189 189 189 190 191 190 191 195 197 201 204 203 207 211 206 204 205 204 205 206 206 206 209 213 217 221 225 225 223 221 211 201 201 196 186 185 187 185 185 191 198
227 211 215 205 195 202 208 229 223 168 164 239 222 186 178 218 244 261 325 274 235 52 334 314 33 112 258 281 318 4 46 13 345 348 1 22 34 187 177 163 166 175 180 185 189 189 188 188 187 185 182 185 194 199 207 212 212 220 224 212 204 203 205 208 209 210 211 210 211 213 219 225 223 220 222 216 200 194 189 183 184 187 187 186 188 194
240 218 217 200 190 201 211 228 216 171 196 232 196 175 189 194 204 345 317 270 1 27 279 276 313 82 276 310 338 12 44 347 327 356 8 37 53 66 86 104 129 143 143 164 181 184 186 187 184 184 184 186 195 201 212 225 228 232 227 214 206 202 203 207 210 211 212 210 208 210 216 221 221 217 218 216 203 192 188 186 187 188 186 185 187 191
253 252 247 197 196 209 205 219 213 197 201 187 146 150 163 6 40 38 19 64 28 323 262 261 247 106 19 321 334 348 346 304 311 33 23 32 49 62 74 85 100 115 124 138 156 172 183 184 184 187 187 188 195 203 214 234 245 239 226 216 211 207 205 207 210 209 209 208 207 212 216 217 220 219 217 214 204 196 192 191 191 190 186 186 191 194
273 264 270 224 236 229 195 208 223 207 186 138 124 132 106 338 15 25 3 45 72 271 264 263 229 94 113 274 314 338 349 7 38 55 49 45 47 57 72 86 98 107 116 128 141 157 171 176 181 188 191 192 196 206 219 232 242 239 234 225 216 211 208 208 210 206 203 205 207 213 218 215 216 217 216 213 205 200 198 195 194 191 188 189 194 198
302 258 251 247 259 245 190 199 243 200 144 120 103 103 117 288 354 353 306 176 186 245 256 248 181 85 193 232 304 6 22 41 52 52 50 55 55 56 65 79 94 107 113 118 126 138 156 169 182 193 200 202 202 209 220 225 230 234 240 237 225 220 215 210 206 201 199 203 205 211 220 218 214 216 216 212 207 203 200 198 195 191 189 189 192 197
311 287 280 260 264 231 180 168 181 172 137 136 133 127 142 159 130 254 266 227 226 252 264 254 178 159 238 215 25 36 53 60 64 64 60 58 61 63 65 71 79 92 104 114 127 135 153 174 193 202 207 212 214 218 225 220 219 224 228 235 235 231 224 210 199 197 196 200 205 210 219 221 217 219 220 214 211 207 202 200 197 193 191 191 192 196
218 284 262 200 239 208 174 166 169 160 141 157 151 135 149 157 150 196 205 172 218 260 291 293 172 167 170 171 41 66 68 66 65 65 65 61 59 67 68 67 69 71 78 88 97 117 171 207 221 221 220 225 225 232 242 228 221 222 223 230 236 235 239 223 196 192 190 194 204 208 211 214 215 219 220 215 212 209 206 204 200 196 195 193 191 193
194 248 248 235 236 201 184 185 150 117 114 224 135 104 149 183 153 161 178 164 168 228 328 296 172 163 147 138 44 58 53 57 62 61 63 63 60 64 64 63 67 68 70 72 70 78 201 244 247 235 235 238 230 228 233 224 219 220 220 224 226 229 245 235 201 192 190 193 203 206 205 205 210 217 215 207 203 204 204 204 202 198 195 192 187 187
177 244 270 266 249 221 197 183 151 136 157 281 106 144 211 179 139 148 215 119 113 146 285 194 125 22 110 74 38 65 54 47 59 60 65 69 69 69 69 69 68 64 64 62 57 52 41 267 241 244 244 245 237 231 229 219 218 220 219 220 222 229 239 219 201 198 194 195 200 203 202 201 206 213 210 199 195 196 197 200 201 198 193 189 186 185
169 253 284 253 248 246 210 184 166 160 152 115 157 206 205 119 108 119 157 9 74 166 268 234 145 166 150 166 344 82 80 64 63 66 69 67 69 74 72 67 61 59 57 49 45 49 42 34 356 307 273 254 246 245 246 233 221 221 219 214 220 235 231 204 203 206 204 203 201 201 201 199 202 208 205 197 192 190 192 196 196 193 190 186 183 182
159 244 289 252 225 248 207 166 264 254 163 139 168 176 124 123 199 104 135 146 127 182 257 306 118 141 164 197 157 94 102 95 79 71 69 62 64 69 61 53 54 55 51 47 51 56 47 39 30 18 2 311 268 248 238 235 225 215 211 203 204 225 222 208 209 213 215 215 208 204 202 200 200 202 200 195 189 185 188 194 190 186 185 179 176 178
147 164 285 279 249 251 59 113 205 269 302 44 73 112 118 144 168 185 174 158 153 191 209 113 59 134 227 220 145 135 131 111 94 78 73 68 65 62 52 48 50 48 45 45 53 62 62 57 51 44 40 22 337 290 228 218 218 210 203 199 193 198 211 214 215 215 215 213 211 208 203 201 200 197 195 192 187 184 188 191 186 183 182 176 174 177
46 124 235 288 320 349 339 244 198 198 203 172 113 95 204 169 148 167 194 147 139 169 182 144 148 255 261 245 147 142 125 110 105 91 78 73 70 64 57 56 55 51 50 52 57 67 74 72 64 54 48 44 22 335 259 211 206 200 193 194 193 194 204 208 209 213 212 207 209 209 202 200 197 191 190 188 186 185 187 186 184 183 179 174 176 176
68 117 188 282 333 293 263 357 96 113 107 116 120 117 217 166 143 157 248 285 111 145 175 155 166 252 272 168 149 143 134 121 105 95 83 76 74 71 67 68 68 64 60 60 66 75 81 79 70 58 43 38 38 25 317 221 211 203 193 187 188 197 206 208 210 215 211 206 209 209 205 202 195 187 185 184 186 188 186 186 187 184 175 174 177 174
128 98 111 241 261 222 141 67 73 81 82 81 81 61 62 94 106 140 215 256 81 105 131 110 116 255 256 137 130 126 122 109 97 96 92 83 78 75 70 71 74 73 68 67 70 75 81 81 76 70 51 33 31 34 32 30 190 185 190 190 193 202 211 215 219 221 214 210 212 213 210 204 195 187 184 184 188 190 188 187 186 179 172 176 179 175
68 72 64 300 292 303 66 77 66 60 65 65 35 21 49 83 151 155 184 191 131 134 121 86 92 247 219 116 122 121 111 102 94 92 91 83 73 67 64 63 69 72 71 69 71 74 81 85 80 76 65 45 34 33 31 27 28 51 157 209 212 213 217 221 225 224 217 217 223 217 208 203 197 190 186 186 190 192 191 189 183 176 176 179 178 179
32 75 83 60 359 342 333 15 35 29 48 67 359 336 349 347 79 115 135 91 107 197 151 121 160 228 158 129 126 119 109 100 90 84 84 82 73 66 63 63 66 70 70 69 70 72 77 82 77 71 67 59 50 44 38 25 12 12 4 246 222 218 226 227 226 223 218 223 230 216 203 201 198 189 186 187 190 191 191 187 178 173 175 176 177 180
119 135 115 117 146 182 213 231 255 348 56 78 1 339 347 356 20 52 86 74 91 267 64 105 162 156 138 138 131 122 114 104 91 82 81 80 77 72 68 68 68 69 70 70 69 67 68 73 75 68 59 55 49 41 36 27 17 10 353 313 277 246 240 236 231 225 220 222 225 215 206 202 194 185 184 185 186 188 185 179 172 170 173 175 176 175
103 54 91 126 144 173 183 202 206 141 85 81 24 1 352 341 10 74 96 94 172 137 39 38 148 133 138 139 123 108 101 99 88 79 77 73 73 72 69 69 69 67 70 72 71 68 65 65 68 69 57 41 31 24 17 12 13 11 2 325 283 265 255 246 239 233 228 224 219 213 208 202 190 181 180 180 181 182 175 169 170 172 173 175 174 172
92 41 61 106 112 173 164 126 91 86 83 85 60 9 350 343 14 73 97 117 139 112 58 256 137 128 133 118 100 88 85 89 79 72 72 70 72 75 73 73 72 71 74 77 74 70 67 61 57 61 57 38 22 14 2 354 355 357 355 339 303 284 275 265 253 242 232 222 213 203 198 196 188 181 180 180 177 170 164 167 173 174 173 172 172 172
109 97 224 108 80 91 119 107 94 90 87 79 67 19 349 359 29 73 110 111 104 123 145 138 113 101 93 84 78 69 71 80 79 75 74 72 73 77 76 74 73 72 73 74 71 67 65 61 54 52 52 41 24 12 0 352 347 346 346 340 329 313 302 288 263 245 227 213 207 200 193 189 185 182 183 180 172 164 162 167 170 172 172 171 170 169
99 204 231 117 80 59 78 109 110 106 103 78 54 29 5 16 45 63 48 41 87 114 128 116 102 83 55 57 65 67 72 77 78 74 69 66 67 73 76 73 71 71 71 70 69 68 66 64 58 56 54 46 39 32 22 10 356 347 343 341 339 324 307 297 269 239 218 203 200 197 192 188 183 181 183 180 172 166 165 165 165 167 170 170 168 166
67 199 236 92 80 51 51 80 98 110 110 88 51 23 16 24 42 45 36 59 81 103 118 111 106 100 76 68 68 68 71 72 69 64 59 56 61 69 72 70 69 70 71 69 69 70 73 73 69 68 68 65 64 59 46 33 21 10 1 350 342 331 312 310 291 245 222 206 197 193 190 189 186 181 180 179 174 171 169 165 164 165 166 167 167 167
72 110 314 74 102 181 150 114 118 114 102 83 49 14 6 11 32 49 54 59 86 131 133 119 111 124 123 101 80 63 64 67 64 63 59 53 58 66 67 65 67 70 71 72 72 72 74 79 81 81 81 81 78 71 60 51 44 38 29 9 352 345 329 308 290 248 224 205 195 193 190 191 192 183 178 177 172 170 171 166 163 165 165 167 169 171
112 112 85 106 128 168 166 152 143 112 89 69 32 353 338 351 42 74 58 30 39 130 140 129 120 128 123 110 92 72 65 66 64 65 63 56 59 67 70 69 69 72 74 75 75 75 76 81 85 87 89 91 90 87 84 80 71 59 47 33 14 3 351 236 217 220 210 195 192 192 189 190 188 176 171 175 173 170 171 168 166 167 167 168 172 175
75 100 131 138 122 156 182 162 100 82 119 161 23 329 317 9 59 77 58 35 52 88 96 91 100 108 105 101 99 93 84 78 74 72 72 72 70 71 76 78 78 79 80 79 78 76 76 80 86 92 95 96 97 97 98 96 90 83 71 68 76 67 82 150 173 185 190 189 188 186 183 183 182 174 171 178 179 174 172 172 172 171 170 170 173 177
81 74 113 105 104 151 161 51 76 167 212 173 103 359 339 38 71 82 70 44 57 92 101 99 101 105 104 102 103 103 97 88 81 75 72 78 82 82 84 86 88 89 86 83 80 77 75 77 83 91 97 101 103 104 107 105 99 95 85 76 85 95 99 123 143 151 160 170 176 182 183 179 177 176 175 177 180 177 172 172 174 174 172 171 173 176
123 105 84 76 93 132 88 51 121 193 236 134 86 9 3 23 43 68 67 45 42 79 106 110 113 113 111 110 109 108 101 89 80 71 68 74 80 83 84 84 88 91 88 84 81 77 75 73 74 79 86 97 105 107 108 106 102 101 95 82 81 89 96 107 115 118 136 152 159 169 177 177 177 178 176 175 176 176 174 172 171 172 173 171 172 174
121 115 94 83 93 118 106 64 91 108 346 98 71 4 10 22 347 24 78 60 45 58 109 119 123 123 120 119 118 113 102 87 73 59 61 72 75 77 79 79 81 84 85 84 82 78 76 73 71 75 80 92 100 102 103 105 105 104 98 88 85 88 90 95 92 88 107 136 147 152 156 164 172 178 181 181 175 167 165 161 155 158 166 168 165 164
84 110 142 143 105 97 111 108 113 171 222 147 83 350 341 339 310 284 134 85 61 88 128 129 129 133 133 133 135 128 100 78 63 34 53 78 79 77 77 78 79 79 79 83 85 84 83 81 77 77 81 89 91 92 97 104 110 111 105 99 98 95 92 89 85 83 93 115 136 148 147 153 163 168 173 180 177 165 155 149 142 141 149 157 155 153
59 71 106 113 108 131 137 142 156 189 215 51 350 321 329 331 316 302 129 104 43 121 144 140 138 145 148 149 153 152 93 83 106 26 70 93 94 85 80 79 79 78 77 80 83 85 84 85 86 86 85 82 76 74 81 91 105 116 114 108 105 100 95 90 85 85 91 103 130 150 152 155 164 168 165 168 174 171 159 154 153 144 140 147 148 146
40 39 70 100 138 179 146 124 122 158 142 43 317 306 319 325 313 260 163 156 3 119 145 146 146 152 154 146 138 115 65 127 146 120 100 109 111 100 90 83 79 77 76 78 79 80 83 88 94 93 86 79 72 68 71 78 90 102 106 107 105 97 90 88 86 88 93 102 122 140 146 152 161 172 167 160 169 172 161 157 171 175 169 171 170 164
31 33 56 107 118 86 87 109 100 108 136 2 310 308 319 325 243 188 187 166 87 105 137 144 141 143 142 126 113 94 93 117 124 118 113 112 109 103 96 89 85 80 77 76 75 75 79 83 86 83 79 79 78 76 77 82 85 88 94 101 99 90 85 87 91 94 96 102 111 116 124 135 142 150 154 146 157 171 170 170 181 187 188 190 190 190
20 23 27 76 109 74 86 105 100 118 84 338 317 309 325 328 198 165 105 124 113 108 124 133 130 130 125 114 109 108 109 115 118 117 115 112 109 107 102 97 93 87 83 80 76 75 76 78 78 75 74 76 78 77 79 88 89 84 83 85 85 83 85 91 94 96 98 100 102 103 108 118 129 139 147 149 156 166 172 176 180 182 184 186 186 184
321 109 76 66 44 88 94 89 122 155 340 342 336 316 354 19 153 123 106 110 115 115 118 117 118 125 124 115 112 114 115 116 118 117 115 112 111 109 105 101 96 91 87 82 78 76 75 74 73 70 68 70 73 75 76 82 85 83 78 75 72 73 80 87 91 97 99 98 96 96 99 105 114 125 137 150 162 164 163 166 169 169 169 173 174 173
313 273 147 195 289 97 128 148 142 158 332 351 16 79 82 103 134 130 117 110 111 116 118 114 112 119 121 117 115 115 114 113 114 114 113 111 109 107 104 102 100 96 91 85 80 77 75 75 73 70 68 67 69 72 71 71 76 77 74 72 72 73 76 78 83 93 97 98 98 97 96 97 99 104 112 125 147 161 162 161 162 160 159 162 166 168
29 80 91 83 61 78 97 115 111 73 46 58 82 97 103 116 132 133 124 118 115 118 120 118 117 118 119 118 115 112 110 109 107 105 104 101 98 96 94 91 89 89 87 83 79 75 74 76 77 74 71 68 68 70 69 68 70 69 65 64 65 68 72 75 78 81 84 90 93 91 92 96 95 94 97 104 117 134 143 146 147 146 144 147 156 162
120 108 94 89 106 91 71 66 71 73 75 83 92 99 107 116 122 123 119 116 116 118 119 119 120 120 119 118 115 112 110 108 104 101 98 93 90 88 86 81 76 75 75 74 72 71 73 76 77 75 72 68 64 65 67 67 67 64 58 55 55 57 62 71 78 77 75 77 79 78 81 89 91 88 91 98 102 107 116 128 135 135 133 135 142 148
22 83 91 97 142 116 70 50 55 74 86 93 96 99 104 109 113 116 117 117 118 120 119 118 120 120 117 116 114 112 110 108 104 100 95 91 88 85 82 79 76 74 75 75 72 68 64 65 69 71 71 66 59 56 60 64 64 62 56 49 46 47 52 65 80 82 78 74 71 69 71 76 79 81 84 89 96 102 106 111 120 126 129 134 143 148
93 93 91 79 80 88 96 99 88 83 89 97 102 105 106 107 109 112 114 116 117 117 118 119 120 119 116 114 112 110 107 104 99 97 95 93 90 84 79 76 75 77 82 83 74 58 49 50 59 68 71 69 60 51 51 57 61 63 60 51 42 40 47 62 75 84 87 81 74 70 66 63 65 74 77 76 82 95 102 104 111 118 120 123 134 148
121 108 92 98 100 91 101 115 104 88 84 93 103 109 110 110 112 114 114 115 115 115 117 119 116 114 113 111 109 106 102 95 89 89 94 99 96 88 81 77 75 78 88 87 68 49 43 46 55 62 65 62 57 51 52 58 64 68 70 68 59 49 50 58 64 73 82 79 73 68 61 54 54 62 70 74 76 79 81 85 95 108 116 121 126 135
100 111 112 114 119 112 123 142 133 106 94 103 108 111 113 114 116 116 116 117 118 118 118 116 112 110 109 108 108 104 97 91 88 88 91 96 96 91 85 81 76 77 83 78 55 43 48 59 62 61 58 50 45 48 54 61 74 79 78 79 76 68 67 70 71 74 76 73 70 67 60 53 50 48 51 60 68 70 66 62 63 74 101 120 128 133
110 161 159 115 106 120 132 137 129 115 111 116 117 116 119 121 120 118 119 121 121 119 115 113 112 111 110 109 109 105 99 97 95 90 89 93 96 93 88 84 80 79 80 70 52 48 61 75 68 59 53 41 37 52 74 79 85 92 90 86 82 80 83 87 88 88 84 79 81 83 79 75 70 62 61 63 65 67 72 96 222 174 75 91 112 131
Height
1476 1480 1483 1484 1483 1482 1482 1484 1484 1483 1484 1485 1486 1488 1487 1486 1484 1478 1474 1468 1466 1470 1469 1468 1469 1470 1469 1464 1465 1468 1468 1469 1472 1475 1476 1476 1476 1477 1478 1479 1481 1483 1485 1486 1488 1489 1490 1491 1493 1495 1496 1497 1498 1499 1500 1500 1500 1501 1502 1504 1507 1508 1509 1512 1516 1518 1519 1520 1521 1521 1520 1520 1520 1521 1522 1523 1525 1526 1527 1528 1529 1531 1533 1534 1536 1537
1477 1483 1483 1480 1479 1479 1481 1483 1483 1483 1484 1484 1487 1488 1488 1487 1481 1474 1473 1468 1464 1467 1468 1468 1469 1470 1467 1465 1466 1468 1468 1469 1470 1473 1476 1476 1476 1476 1475 1478 1480 1482 1484 1486 1487 1488 1489 1490 1492 1494 1494 1495 1496 1497 1497 1498 1500 1501 1501 1503 1505 1507 1508 1510 1512 1514 1514 1515 1516 1516 1516 1516 1517 1518 1520 1521 1523 1525 1526 1527 1528 1530 1532 1533 1535 1536
1482 1484 1479 1475 1477 1479 1480 1481 1483 1484 1484 1486 1488 1489 1490 1486 1478 1472 1470 1467 1464 1466 1468 1469 1470 1470 1468 1467 1467 1465 1464 1466 1467 1468 1470 1472 1473 1474 1473 1475 1479 1481 1483 1484 1485 1486 1487 1488 1490 1492 1492 1493 1494 1495 1496 1497 1498 1498 1498 1500 1502 1504 1505 1507 1509 1510 1511 1511 1512 1513 1513 1514 1515 1517 1519 1520 1522 1524 1525 1526 1527 1529 1530 1532 1534 1535
1485 1480 1473 1473 1476 1478 1480 1480 1482 1485 1484 1485 1487 1490 1489 1483 1481 1478 1471 1469 1468 1467 1470 1471 1472 1471 1469 1467 1465 1462 1462 1463 1466 1465 1465 1468 1469 1469 1470 1472 1475 1478 1480 1482 1483 1483 1484 1486 1487 1489 1490 1491 1493 1494 1494 1495 1496 1496 1495 1495 1497 1499 1501 1504 1505 1508 1509 1510 1511 1511 1511 1512 1514 1516 1518 1519 1521 1523 1523 1525 1527 1528 1529 1531 1533 1535
1480 1472 1470 1473 1475 1477 1479 1479 1481 1485 1486 1484 1484 1487 1486 1480 1480 1479 1474 1472 1470 1469 1468 1471 1477 1476 1471 1470 1467 1463 1463 1463 1465 1465 1465 1466 1466 1467 1469 1471 1473 1475 1476 1478 1480 1480 1481 1482 1484 1487 1489 1491 1492 1492 1493 1494 1494 1494 1494 1494 1495 1495 1497 1500 1502 1505 1507 1509 1509 1509 1509 1510 1512 1513 1515 1517 1519 1521 1522 1524 1526 1528 1529 1531 1533 1534
1475 1468 1470 1473 1474 1476 1478 1479 1480 1482 1485 1484 1480 1479 1479 1476 1476 1476 1474 1475 1478 1478 1471 1472 1488 1488 1474 1473 1471 1467 1467 1465 1464 1466 1465 1466 1467 1469 1470 1470 1472 1474 1475 1476 1478 1479 1480 1481 1483 1486 1488 1490 1491 1492 1493 1494 1494 1493 1493 1494 1495 1494 1495 1498 1500 1502 1505 1507 1507 1507 1508 1508 1509 1510 1512 1514 1517 1519 1522 1523 1525 1528 1529 1531 1533 1534
1470 1466 1468 1471 1473 1474 1477 1478 1476 1477 1485 1485 1476 1471 1472 1472 1473 1474 1473 1477 1484 1485 1475 1472 1489 1494 1483 1475 1471 1469 1470 1467 1465 1467 1467 1466 1468 1470 1471 1472 1475 1477 1477 1478 1480 1481 1480 1481 1482 1483 1485 1488 1491 1493 1495 1495 1495 1494 1492 1492 1494 1495 1496 1497 1499 1501 1504 1506 1506 1507 1508 1509 1511 1512 1513 1515 1517 1519 1521 1523 1525 1527 1529 1531 1532 1534
1464 1465 1468 1469 1471 1474 1478 1478 1471 1472 1481 1481 1470 1466 1469 1468 1470 1472 1473 1479 1482 1481 1479 1474 1478 1490 1489 1478 1471 1472 1473 1470 1468 1468 1469 1467 1466 1468 1470 1474 1478 1479 1479 1480 1481 1483 1484 1484 1484 1485 1488 1492 1495 1497 1498 1497 1496 1495 1493 1492 1494 1495 1496 1497 1499 1501 1503 1504 1505 1506 1508 1511 1513 1515 1516 1517 1519 1520 1521 1523 1524 1526 1528 1529 1532 1533
1461 1463 1465 1466 1471 1474 1474 1470 1465 1468 1475 1471 1463 1463 1466 1465 1468 1469 1472 1479 1479 1481 1487 1480 1474 1487 1492 1482 1477 1474 1474 1475 1474 1472 1474 1471 1467 1469 1471 1474 1477 1479 1481 1482 1483 1486 1488 1490 1491 1491 1493 1495 1497 1498 1499 1499 1498 1497 1495 1494 1494 1495 1496 1497 1498 1500 1502 1503 1505 1508 1510 1512 1514 1516 1518 1519 1520 1521 1521 1522 1524 1525 1527 1528 1530 1532
1459 1459 1459 1461 1467 1470 1466 1461 1461 1466 1468 1463 1460 1462 1463 1465 1468 1468 1472 1476 1477 1485 1490 1481 1475 1487 1496 1492 1486 1481 1479 1480 1478 1477 1478 1476 1472 1473 1475 1477 1477 1479 1481 1482 1484 1486 1489 1491 1492 1493 1493 1493 1494 1496 1499 1501 1501 1500 1498 1497 1496 1496 1495 1496 1498 1500 1502 1504 1507 1509 1510 1513 1516 1517 1519 1520 1521 1521 1521 1522 1523 1525 1527 1528 1530 1531
1457 1455 1456 1457 1460 1459 1458 1457 1458 1459 1460 1459 1461 1463 1466 1470 1469 1470 1474 1475 1481 1491 1488 1477 1474 1482 1497 1502 1494 1488 1486 1483 1480 1481 1482 1480 1479 1477 1478 1479 1479 1480 1481 1483 1485 1487 1489 1491 1492 1493 1492 1491 1492 1494 1498 1502 1504 1503 1501 1500 1497 1496 1495 1496 1497 1500 1503 1505 1508 1509 1511 1514 1516 1517 1519 1520 1520 1520 1521 1522 1522 1524 1525 1527 1529 1530
1456 1455 1456 1453 1453 1453 1453 1456 1455 1454 1456 1458 1461 1465 1471 1477 1476 1478 1481 1481 1492 1500 1488 1477 1474 1479 1495 1504 1498 1491 1487 1484 1483 1484 1484 1484 1484 1482 1481 1482 1482 1482 1483 1484 1486 1488 1490 1491 1492 1493 1492 1491 1492 1493 1495 1501 1505 1504 1502 1501 1499 1497 1497 1497 1498 1501 1504 1506 1509 1512 1513 1514 1513 1514 1516 1519 1519 1520 1520 1521 1522 1523 1524 1526 1528 1530
1456 1454 1453 1451 1450 1450 1452 1456 1456 1455 1456 1459 1463 1469 1480 1488 1489 1492 1493 1493 1499 1497 1484 1478 1477 1483 1496 1500 1496 1493 1488 1486 1487 1487 1488 1487 1486 1485 1484 1484 1484 1484 1485 1485 1486 1487 1489 1490 1490 1491 1491 1490 1491 1492 1492 1496 1501 1503 1502 1501 1500 1499 1499 1499 1500 1502 1505 1507 1510 1512 1512 1512 1512 1512 1513 1516 1518 1519 1520 1521 1522 1522 1523 1525 1527 1529
1462 1455 1450 1451 1450 1446 1449 1454 1458 1458 1457 1460 1465 1471 1482 1492 1499 1503 1502 1502 1501 1491 1483 1480 1479 1489 1501 1499 1496 1496 1492 1489 1489 1489 1490 1490 1490 1489 1487 1487 1486 1486 1487 1487 1487 1487 1488 1489 1489 1489 1489 1489 1490 1491 1491 1492 1494 1497 1500 1501 1501 1501 1502 1501 1501 1502 1504 1507 1509 1510 1510 1511 1512 1512 1512 1513 1516 1519 1520 1520 1522 1522 1523 1525 1526 1528
1470 1465 1453 1450 1450 1445 1444 1448 1451 1453 1455 1457 1459 1465 1475 1482 1491 1499 1498 1498 1498 1491 1485 1483 1483 1493 1502 1501 1499 1497 1493 1492 1493 1491 1490 1492 1493 1491 1489 1488 1488 1488 1488 1488 1489 1489 1489 1490 1490 1490 1489 1489 1489 1490 1491 1489 1489 1492 1495 1497 1498 1500 1502 1502 1501 1501 1502 1504 1504 1505 1506 1508 1510 1511 1512 1512 1515 1518 1520 1520 1521 1522 1524 1525 1526 1528
1469 1466 1450 1444 1446 1443 1443 1444 1444 1449 1456 1457 1457 1464 1471 1470 1474 1485 1489 1488 1492 1493 1489 1488 1491 1495 1497 1500 1499 1497 1496 1495 1495 1494 1493 1494 1496 1492 1490 1490 1489 1490 1490 1490 1490 1490 1490 1490 1490 1490 1489 1488 1488 1489 1488 1488 1489 1490 1491 1492 1494 1497 1500 1501 1500 1500 1501 1501 1501 1502 1503 1505 1507 1509 1510 1511 1512 1515 1518 1519 1521 1522 1523 1524 1526 1527
1465 1461 1447 1443 1444 1440 1441 1442 1441 1447 1456 1458 1460 1464 1465 1461 1462 1476 1487 1488 1489 1496 1494 1491 1495 1496 1497 1500 1498 1498 1500 1499 1497 1496 1496 1498 1497 1495 1493 1493 1493 1493 1493 1492 1492 1491 1490 1490 1490 1489 1488 1487 1487 1487 1487 1488 1489 1489 1489 1489 1492 1495 1497 1499 1499 1499 1500 1500 1502 1502 1503 1504 1505 1507 1509 1510 1511 1513 1515 1518 1520 1521 1522 1523 1525 1526
1460 1459 1447 1443 1446 1441 1438 1440 1440 1442 1448 1457 1463 1460 1458 1462 1463 1469 1484 1492 1496 1500 1496 1491 1495 1499 1501 1503 1500 1499 1502 1501 1499 1498 1498 1499 1498 1496 1496 1495 1496 1496 1495 1494 1493 1492 1492 1491 1490 1490 1488 1487 1486 1486 1488 1489 1489 1489 1489 1489 1491 1494 1497 1498 1499 1500 1501 1501 1501 1502 1502 1503 1504 1506 1508 1509 1510 1512 1514 1517 1519 1520 1521 1522 1524 1525
1454 1461 1451 1442 1444 1441 1436 1441 1446 1444 1443 1449 1454 1452 1457 1470 1473 1472 1481 1491 1497 1501 1496 1494 1500 1502 1502 1503 1501 1501 1502 1501 1501 1499 1498 1499 1498 1498 1498 1497 1497 1497 1496 1495 1493 1493 1492 1492 1492 1491 1490 1489 1487 1487 1488 1488 1489 1489 1489 1489 1491 1493 1496 1497 1499 1501 1501 1501 1501 1501 1501 1502 1503 1506 1508 1509 1509 1511 1513 1516 1518 1519 1521 1522 1523 1525
1452 1461 1457 1443 1440 1441 1439 1445 1452 1451 1447 1448 1451 1451 1454 1463 1469 1472 1476 1480 1487 1496 1497 1497 1503 1505 1503 1502 1501 1501 1501 1500 1500 1499 1498 1499 1499 1499 1499 1498 1498 1497 1496 1495 1494 1493 1493 1493 1494 1493 1492 1491 1489 1488 1488 1488 1489 1489 1490 1491 1491 1492 1493 1494 1497 1498 1498 1499 1499 1499 1500 1501 1502 1505 1507 1508 1509 1510 1512 1515 1517 1518 1519 1521 1523 1524
1451 1459 1459 1447 1441 1445 1447 1447 1448 1449 1450 1451 1455 1459 1458 1457 1460 1466 1471 1471 1474 1485 1492 1495 1504 1508 1503 1500 1500 1500 1500 1500 1499 1499 1499 1500 1500 1500 1499 1499 1499 1498 1497 1497 1495 1495 1494 1494 1495 1494 1493 1493 1492 1491 1489 1489 1489 1489 1490 1491 1490 1491 1491 1492 1492 1493 1494 1495 1496 1496 1498 1499 1501 1503 1505 1507 1508 1509 1511 1513 1515 1516 1518 1519 1521 1523
1453 1457 1459 1454 1449 1450 1452 1448 1445 1447 1450 1454 1459 1465 1464 1461 1463 1470 1475 1472 1469 1477 1484 1488 1500 1508 1502 1499 1501 1500 1500 1500 1499 1499 1500 1501 1501 1501 1501 1500 1499 1498 1498 1498 1497 1496 1495 1494 1495 1496 1495 1494 1494 1492 1491 1490 1490 1490 1490 1490 1490 1491 1491 1491 1491 1491 1492 1492 1492 1494 1496 1497 1499 1502 1503 1505 1507 1507 1508 1511 1513 1515 1517 1520 1521 1523
1452 1455 1458 1457 1453 1452 1452 1451 1449 1449 1451 1455 1461 1466 1466 1464 1467 1472 1475 1474 1472 1479 1484 1485 1497 1505 1501 1499 1501 1500 1500 1500 1500 1500 1501 1503 1503 1502 1502 1501 1500 1499 1499 1500 1499 1497 1496 1494 1495 1496 1496 1496 1495 1493 1492 1492 1491 1491 1491 1492 1492 1492 1492 1491 1491 1491 1491 1491 1491 1492 1494 1495 1498 1499 1501 1503 1504 1506 1507 1509 1511 1515 1518 1521 1523 1524
1452 1457 1459 1457 1453 1450 1450 1451 1451 1450 1452 1459 1465 1466 1466 1468 1469 1469 1471 1471 1473 1481 1482 1484 1497 1504 1501 1500 1500 1500 1501 1501 1502 1502 1502 1503 1504 1503 1503 1503 1501 1500 1500 1501 1500 1499 1497 1496 1496 1496 1496 1496 1495 1493 1494 1494 1493 1492 1492 1492 1492 1492 1492 1491 1491 1491 1491 1491 1491 1492 1492 1494 1496 1497 1499 1501 1503 1505 1507 1508 1511 1515 1518 1520 1523 1525
1454 1461 1461 1461 1462 1459 1456 1454 1456 1459 1463 1469 1473 1469 1467 1468 1465 1465 1468 1469 1474 1482 1479 1479 1495 1504 1500 1500 1501 1500 1501 1502 1503 1504 1503 1504 1505 1504 1504 1504 1503 1502 1502 1502 1501 1500 1498 1496 1496 1496 1496 1496 1495 1494 1495 1495 1494 1492 1491 1491 1491 1491 1491 1490 1490 1490 1490 1491 1492 1492 1493 1494 1495 1496 1498 1500 1503 1505 1507 1509 1512 1515 1517 1519 1522 1525
1455 1461 1461 1463 1468 1469 1468 1468 1468 1471 1473 1475 1477 1474 1470 1469 1465 1464 1468 1469 1476 1485 1483 1484 1496 1502 1500 1500 1501 1501 1502 1503 1504 1505 1505 1506 1506 1505 1504 1503 1503 1504 1504 1502 1501 1500 1499 1497 1497 1497 1498 1497 1496 1495 1496 1495 1494 1493 1491 1490 1490 1490 1489 1488 1488 1488 1489 1491 1492 1494 1496 1496 1496 1497 1498 1501 1503 1505 1507 1509 1513 1515 1517 1519 1522 1524
1457 1462 1461 1462 1465 1467 1471 1473 1472 1472 1476 1479 1480 1478 1476 1475 1470 1467 1469 1473 1476 1483 1490 1493 1495 1498 1501 1501 1502 1503 1504 1505 1506 1506 1507 1507 1507 1506 1505 1504 1504 1504 1503 1501 1501 1502 1502 1501 1500 1500 1499 1498 1496 1495 1495 1495 1494 1492 1491 1490 1489 1489 1488 1487 1488 1488 1489 1491 1493 1496 1498 1498 1498 1498 1500 1502 1503 1506 1508 1510 1513 1515 1517 1520 1522 1523
1459 1465 1464 1462 1465 1466 1468 1471 1471 1474 1480 1484 1484 1482 1480 1478 1473 1469 1472 1479 1478 1480 1492 1497 1492 1495 1502 1503 1504 1507 1506 1507 1508 1508 1508 1508 1508 1508 1507 1505 1505 1504 1503 1502 1503 1505 1504 1504 1504 1503 1501 1499 1498 1497 1496 1495 1495 1493 1492 1491 1489 1488 1487 1487 1488 1489 1489 1491 1494 1496 1497 1498 1499 1499 1501 1502 1504 1507 1509 1511 1513 1515 1517 1520 1522 1523
1460 1467 1465 1463 1466 1469 1470 1473 1475 1479 1487 1490 1490 1488 1485 1481 1477 1474 1479 1485 1483 1479 1487 1495 1495 1500 1506 1507 1508 1510 1509 1509 1510 1510 1510 1510 1510 1509 1507 1506 1506 1506 1505 1505 1506 1506 1506 1507 1506 1505 1503 1502 1500 1499 1498 1497 1496 1495 1493 1491 1490 1488 1488 1488 1488 1489 1490 1492 1494 1495 1496 1497 1499 1500 1501 1502 1505 1507 1510 1512 1514 1516 1518 1520 1522 1524
1461 1467 1465 1463 1469 1473 1475 1476 1478 1481 1489 1494 1495 1493 1490 1486 1484 1483 1485 1487 1486 1484 1489 1494 1500 1507 1512 1512 1513 1513 1512 1512 1511 1511 1511 1511 1512 1511 1508 1507 1508 1507 1507 1507 1507 1508 1508 1508 1507 1506 1505 1504 1503 1502 1500 1499 1498 1497 1495 1492 1491 1489 1489 1489 1489 1489 1491 1492 1494 1495 1496 1497 1499 1501 1502 1504 1507 1509 1510 1512 1514 1516 1518 1521 1523 1525
1461 1467 1465 1464 1472 1480 1481 1480 1482 1484 1489 1495 1498 1496 1493 1490 1488 1489 1490 1489 1489 1493 1496 1498 1502 1509 1513 1514 1515 1515 1514 1513 1512 1512 1513 1513 1512 1510 1507 1508 1509 1508 1509 1509 1509 1510 1510 1509 1509 1508 1507 1506 1505 1503 1501 1500 1499 1497 1496 1494 1492 1491 1490 1490 1490 1490 1492 1493 1495 1496 1496 1497 1499 1501 1504 1505 1508 1510 1511 1512 1515 1517 1519 1522 1524 1525
1460 1466 1467 1466 1474 1483 1483 1483 1486 1485 1484 1490 1497 1499 1497 1493 1491 1492 1494 1493 1492 1495 1498 1499 1502 1509 1512 1512 1514 1516 1515 1514 1514 1515 1514 1514 1512 1509 1508 1509 1510 1510 1511 1511 1511 1511 1511 1511 1510 1509 1508 1507 1506 1504 1502 1501 1500 1498 1497 1495 1494 1492 1491 1491 1491 1491 1493 1494 1495 1496 1497 1498 1500 1502 1504 1506 1507 1510 1511 1513 1515 1517 1519 1522 1523 1525
1461 1465 1468 1469 1474 1481 1483 1482 1483 1480 1476 1484 1496 1501 1499 1496 1494 1494 1496 1495 1493 1493 1496 1498 1503 1509 1512 1511 1513 1516 1517 1517 1517 1516 1516 1515 1513 1511 1511 1512 1512 1513 1513 1513 1513 1513 1513 1512 1511 1510 1510 1508 1507 1506 1504 1503 1502 1500 1499 1497 1496 1494 1493 1493 1493 1493 1494 1495 1495 1496 1497 1499 1500 1502 1503 1505 1508 1510 1512 1513 1515 1517 1519 1521 1523 1524
1463 1465 1468 1470 1473 1480 1484 1483 1480 1478 1479 1490 1500 1501 1499 1497 1496 1496 1499 1499 1496 1495 1498 1502 1506 1511 1512 1511 1513 1517 1519 1519 1519 1518 1517 1517 1516 1514 1514 1514 1514 1515 1515 1515 1515 1515 1514 1514 1513 1512 1511 1510 1509 1508 1506 1505 1504 1502 1501 1500 1498 1497 1496 1495 1495 1495 1495 1495 1495 1497 1498 1500 1501 1502 1503 1505 1508 1511 1513 1514 1516 1517 1519 1521 1522 1524
1465 1466 1469 1471 1474 1481 1485 1483 1480 1483 1490 1497 1501 1499 1498 1498 1497 1498 1502 1503 1501 1500 1501 1506 1511 1513 1514 1514 1515 1517 1520 1519 1519 1520 1520 1519 1519 1518 1517 1516 1516 1516 1517 1517 1516 1516 1516 1515 1514 1514 1513 1512 1511 1510 1509 1507 1506 1505 1503 1502 1500 1499 1498 1497 1497 1497 1496 1496 1496 1497 1499 1500 1501 1502 1504 1507 1509 1510 1512 1514 1515 1517 1519 1521 1522 1524
1464 1467 1470 1473 1477 1482 1487 1485 1485 1492 1499 1501 1500 1499 1499 1499 1499 1500 1503 1506 1506 1505 1504 1507 1512 1515 1516 1517 1517 1518 1520 1519 1518 1521 1522 1522 1522 1521 1519 1519 1518 1517 1517 1517 1517 1517 1516 1516 1516 1516 1516 1515 1513 1512 1511 1509 1508 1507 1505 1504 1503 1501 1500 1499 1498 1498 1498 1498 1498 1498 1499 1500 1501 1503 1505 1507 1509 1510 1511 1513 1515 1517 1519 1520 1522 1524
1463 1467 1472 1475 1478 1484 1492 1496 1498 1501 1501 1501 1503 1503 1502 1503 1503 1502 1504 1508 1509 1508 1507 1509 1512 1515 1517 1518 1519 1519 1518 1517 1519 1523 1525 1525 1524 1523 1522 1521 1520 1519 1519 1518 1518 1518 1517 1518 1518 1518 1518 1517 1515 1514 1513 1511 1510 1508 1507 1506 1505 1503 1502 1501 1500 1499 1500 1500 1500 1500 1500 1501 1502 1504 1506 1508 1509 1510 1512 1513 1515 1517 1519 1520 1522 1524
1464 1467 1471 1474 1480 1488 1495 1502 1505 1502 1499 1502 1506 1505 1504 1504 1504 1503 1505 1508 1510 1510 1510 1510 1512 1515 1517 1517 1519 1519 1517 1518 1524 1528 1528 1526 1525 1524 1524 1523 1522 1521 1520 1520 1520 1519 1519 1519 1519 1519 1519 1518 1516 1515 1514 1513 1511 1509 1508 1507 1506 1505 1504 1502 1501 1501 1501 1501 1501 1501 1502 1503 1504 1505 1506 1508 1510 1511 1513 1515 1516 1517 1519 1521 1522 1524
1469 1471 1472 1474 1482 1488 1489 1494 1499 1500 1501 1506 1507 1506 1504 1504 1504 1503 1504 1507 1510 1510 1511 1512 1513 1515 1516 1516 1518 1518 1518 1523 1530 1532 1528 1527 1527 1526 1526 1525 1524 1523 1523 1522 1522 1521 1521 1520 1520 1520 1519 1519 1518 1517 1516 1515 1513 1511 1509 1509 1508 1507 1505 1504 1503 1502 1502 1502 1502 1502 1503 1504 1505 1506 1507 1508 1509 1511 1513 1515 1517 1520 1521 1523 1524 1525
1473 1475 1475 1477 1483 1487 1487 1492 1500 1503 1505 1508 1507 1505 1504 1504 1505 1502 1500 1504 1509 1510 1511 1513 1514 1515 1517 1517 1518 1519 1520 1524 1529 1530 1529 1528 1527 1527 1527 1526 1526 1525 1524 1524 1524 1523 1522 1522 1521 1520 1520 1519 1519 1519 1518 1518 1516 1513 1511 1511 1510 1508 1507 1506 1506 1505 1504 1503 1503 1504 1505 1506 1507 1507 1508 1509 1510 1512 1514 1516 1518 1521 1523 1524 1525 1527
1479 1479 1479 1481 1487 1489 1491 1497 1504 1506 1507 1507 1507 1505 1504 1504 1504 1501 1499 1504 1510 1510 1510 1512 1514 1515 1517 1517 1518 1521 1523 1524 1526 1529 1529 1529 1528 1528 1528 1528 1527 1526 1525 1525 1525 1524 1524 1523 1522 1521 1521 1520 1521 1521 1520 1519 1518 1516 1514 1513 1512 1511 1511 1511 1510 1508 1507 1506 1505 1506 1507 1507 1508 1508 1509 1510 1511 1512 1514 1516 1519 1521 1522 1524 1525 1527
1484 1484 1484 1486 1489 1491 1495 1500 1503 1504 1507 1507 1505 1505 1504 1503 1503 1502 1505 1509 1510 1509 1511 1513 1514 1516 1518 1519 1520 1523 1526 1527 1528 1530 1530 1530 1530 1530 1530 1529 1528 1528 1527 1527 1526 1526 1525 1524 1523 1523 1523 1522 1522 1522 1522 1521 1520 1518 1517 1516 1514 1514 1514 1514 1513 1511 1509 1508 1508 1508 1509 1509 1509 1510 1510 1512 1513 1514 1515 1517 1518 1520 1522 1523 1525 1526
1490 1489 1490 1494 1494 1492 1495 1500 1499 1501 1506 1506 1504 1504 1504 1504 1505 1506 1509 1510 1510 1510 1512 1513 1515 1517 1518 1520 1523 1525 1527 1529 1530 1531 1531 1532 1532 1532 1532 1531 1531 1530 1529 1528 1528 1527 1526 1525 1525 1525 1524 1524 1524 1523 1523 1523 1522 1521 1520 1519 1517 1517 1517 1516 1515 1514 1513 1511 1511 1511 1511 1511 1512 1512 1512 1514 1515 1515 1516 1518 1519 1520 1522 1523 1524 1525
1492 1491 1491 1498 1498 1492 1494 1500 1502 1504 1507 1505 1503 1504 1505 1506 1507 1508 1509 1510 1512 1513 1512 1514 1518 1520 1519 1522 1525 1527 1529 1531 1532 1532 1533 1534 1534 1534 1533 1533 1532 1532 1531 1530 1529 1529 1528 1527 1527 1527 1526 1526 1525 1525 1525 1524 1523 1523 1522 1521 1521 1521 1520 1519 1518 1517 1515 1515 1515 1515 1515 1515 1515 1515 1515 1515 1516 1517 1518 1519 1520 1521 1522 1523 1524 1524
1493 1491 1489 1495 1500 1497 1499 1505 1508 1508 1508 1505 1505 1506 1507 1508 1509 1509 1509 1511 1514 1515 1514 1515 1519 1522 1523 1524 1526 1528 1531 1532 1533 1534 1535 1535 1535 1535 1534 1534 1534 1533 1533 1532 1531 1531 1530 1529 1528 1528 1528 1528 1527 1527 1526 1525 1524 1524 1523 1523 1523 1523 1522 1521 1520 1519 1518 1517 1517 1518 1518 1518 1518 1518 1518 1518 1518 1519 1520 1521 1521 1522 1523 1524 1524 1525
1493 1492 1490 1495 1501 1501 1504 1508 1509 1508 1508 1508 1507 1508 1508 1510 1511 1511 1512 1513 1515 1517 1518 1518 1521 1524 1525 1526 1528 1530 1532 1533 1534 1535 1535 1535 1536 1535 1535 1536 1535 1535 1534 1534 1533 1532 1531 1530 1530 1530 1530 1530 1530 1529 1528 1526 1526 1525 1525 1525 1525 1524 1524 1523 1522 1521 1521 1520 1520 1521 1521 1521 1521 1521 1521 1521 1521 1521 1522 1522 1523 1523 1524 1525 1525 1526
1493 1491 1492 1497 1499 1501 1507 1512 1511 1510 1511 1510 1510 1511 1511 1512 1513 1514 1514 1516 1518 1519 1521 1522 1524 1526 1527 1528 1529 1531 1533 1534 1534 1535 1536 1536 1536 1537 1537 1537 1537 1536 1536 1535 1535 1534 1533 1532 1531 1531 1531 1532 1532 1531 1530 1528 1527 1527 1527 1527 1526 1525 1525 1524 1524 1523 1523 1523 1523 1523 1523 1523 1524 1524 1524 1524 1524 1524 1525 1525 1525 1525 1526 1526 1527 1528
1493 1492 1494 1498 1500 1503 1509 1513 1512 1512 1513 1512 1512 1514 1514 1514 1516 1517 1518 1520 1521 1522 1524 1525 1526 1528 1529 1530 1531 1532 1533 1535 1535 1535 1536 1537 1537 1538 1538 1538 1538 1538 1537 1537 1536 1536 1535 1533 1533 1533 1533 1533 1534 1533 1532 1530 1529 1529 1529 1528 1527 1527 1526 1525 1524 1524 1524 1524 1524 1524 1524 1525 1525 1525 1525 1525 1526 1526 1527 1527 1528 1528 1528 1529 1530 1530
1491 1494 1496 1499 1503 1507 1511 1513 1513 1513 1515 1516 1516 1517 1517 1517 1518 1520 1522 1524 1525 1526 1527 1528 1529 1530 1531 1532 1533 1533 1534 1535 1536 1537 1537 1537 1538 1538 1538 1538 1538 1538 1539 1539 1538 1537 1536 1535 1535 1535 1535 1535 1535 1535 1534 1533 1532 1531 1531 1530 1529 1529 1528 1526 1526 1525 1525 1525 1525 1525 1525 1526 1526 1526 1526 1526 1527 1527 1528 1529 1530 1530 1531 1531 1532 1532
1493 1498 1500 1500 1503 1508 1511 1512 1512 1513 1516 1519 1519 1519 1520 1520 1521 1523 1525 1527 1528 1528 1529 1530 1531 1532 1533 1533 1534 1535 1535 1536 1537 1538 1537 1538 1538 1539 1539 1539 1539 1539 1540 1540 1540 1539 1538 1537 1537 1537 1537 1537 1537 1536 1535 1535 1534 1533 1533 1532 1531 1530 1529 1528 1528 1527 1527 1527 1527 1527 1527 1527 1527 1527 1527 1527 1528 1528 1529 1530 1531 1532 1532 1533 1533 1534
1496 1499 1499 1499 1502 1506 1509 1511 1512 1513 1516 1519 1521 1521 1522 1523 1523 1525 1527 1528 1530 1531 1531 1531 1532 1533 1534 1535 1536 1536 1536 1537 1538 1538 1538 1539 1540 1540 1541 1541 1541 1541 1541 1541 1541 1541 1540 1539 1539 1539 1538 1538 1538 1537 1537 1536 1535 1535 1534 1534 1533 1532 1532 1531 1531 1530 1529 1529 1529 1529 1529 1529 1529 1529 1529 1529 1530 1530 1531 1532 1532 1533 1534 1534 1534 1535